CAPE
0 0 0 0 0 0 0 0 0 0 0 0 0 0 0 0 0 0 0 0 0 5 3 20 12 16 5 8 5 11 0 1 15 0 2 6 9 23 10 5 7 12 21
0 0 0 0 0 0 0 0 0 0 0 0 3 0 0 0 0 0 0 4 0 0 5 9 11 23 5 4 13 8 14 5 12 4 1 7 49 45 43 49 25 12 15
0 0 0 0 0 0 0 0 0 0 0 3 0 0 0 0 0 0 0 1 0 0 0 9 17 13 6 0 0 9 18 4 4 1 11 22 20 80 46 29 8 2 7
0 0 0 0 0 0 0 0 0 0 4 2 0 5 0 0 0 0 0 0 0 1 26 36 27 20 29 17 15 8 16 11 0 11 15 33 17 39 13 1 1 6 0
0 0 0 0 0 0 0 0 0 2 2 13 4 9 0 0 0 2 0 0 0 0 0 27 33 38 28 7 2 22 6 3 5 15 16 12 3 0 0 0 0 0 0
0 0 0 0 0 0 0 0 2 3 1 9 6 4 9 0 0 0 0 0 0 0 0 28 29 27 3 7 5 0 0 0 2 16 30 17 5 3 0 0 0 0 0
0 0 0 0 0 0 0 1 1 3 6 6 10 13 11 9 0 0 0 0 0 0 8 16 23 21 0 5 0 0 0 0 3 18 7 2 0 1 0 0 0 0 1
0 0 0 0 0 0 0 0 0 6 9 20 8 9 0 5 0 0 0 0 10 37 38 31 18 0 0 0 0 0 0 0 10 6 9 4 8 0 1 0 0 3 0
0 0 0 0 0 0 0 0 4 6 16 9 16 11 5 0 17 0 0 27 60 45 68 23 47 0 0 0 0 0 0 2 2 0 0 0 0 0 0 0 0 5 3
0 0 0 0 0 0 0 0 4 5 5 12 4 0 0 14 0 0 0 0 0 2 0 0 0 0 0 0 0 0 0 0 0 0 2 6 9 9 7 0 3 3 1
0 0 0 0 0 2 2 3 9 4 18 0 1 12 19 13 0 0 0 0 0 0 0 0 0 0 0 0 0 0 0 0 0 0 4 9 9 1 2 12 10 6 1
0 0 0 0 3 1 0 0 8 9 0 0 1 9 26 23 0 0 0 0 0 0 0 0 0 0 0 0 0 0 0 0 2 1 4 2 6 4 2 7 8 16 19
0 0 0 0 8 0 0 3 6 0 0 0 15 24 5 1 0 0 0 0 0 0 0 0 0 0 0 0 0 0 0 3 0 0 0 0 2 4 10 11 13 14 8
0 0 0 1 0 0 2 3 0 0 0 20 22 29 24 8 0 0 0 0 0 0 0 0 0 0 0 0 2 11 19 13 5 2 0 0 0 1 0 10 2 5 4
0 1 0 0 0 2 2 0 1 0 0 12 6 2 5 0 0 0 0 0 0 0 0 0 3 7 1 1 10 7 3 9 0 0 0 0 2 5 0 0 3 3 5
0 0 0 0 3 0 0 0 0 0 0 0 0 0 0 0 0 0 0 0 0 0 0 0 24 25 3 0 0 2 5 3 0 0 0 2 2 0 1 0 3 3 0
0 0 0 0 3 0 0 0 0 0 0 0 0 0 0 0 0 0 0 0 0 0 0 6 14 17 6 0 0 0 0 0 1 0 2 9 6 5 5 10 11 8 0
0 0 0 0 1 0 6 0 0 0 0 0 0 0 0 0 0 0 0 0 0 4 0 6 2 24 28 3 0 1 0 1 3 2 2 2 2 2 2 5 5 9 7
3 0 0 0 0 0 6 6 0 0 0 0 0 0 0 0 0 0 0 0 0 9 0 0 0 6 24 9 4 7 11 5 0 2 2 4 3 3 0 2 2 0 5
0 0 0 0 0 0 27 18 25 9 5 3 0 0 0 0 0 0 1 4 1 0 0 0 0 3 9 3 4 1 0 2 2 3 2 0 0 0 0 0 0 1 7
0 0 0 0 0 4 19 8 23 12 1 0 0 0 0 0 0 0 0 0 0 0 0 0 0 1 1 0 0 0 6 8 4 0 0 0 0 0 0 0 0 0 1
0 0 0 6 0 11 7 6 2 2 1 4 0 0 0 0 0 0 0 0 0 0 0 0 0 0 0 0 0 0 3 0 0 0 0 0 0 0 0 0 0 0 1
0 0 0 0 2 1 3 5 0 1 0 0 0 0 0 0 0 0 0 0 0 0 0 0 0 0 0 0 3 0 0 0 0 0 0 0 0 0 0 0 0 0 7
0 0 2 0 4 3 0 0 0 0 0 0 0 0 0 0 0 0 0 0 0 0 0 0 0 0 0 2 0 0 0 0 0 0 0 0 0 0 0 0 0 7 0
0 3 1 0 0 1 0 0 0 0 0 0 0 0 0 0 0 0 0 0 0 0 0 0 0 0 9 0 0 0 0 0 0 0 0 0 0 0 0 0 2 0 6
7 0 0 0 1 1 0 0 0 0 0 0 0 0 0 0 0 0 0 0 0 0 0 0 0 3 0 0 0 0 0 0 0 0 0 0 0 0 1 0 1 0 2
CIN
-0 -0 -0 -0 -0 -0 -0 -0 -0 -0 -0 -0 -0 -0 -0 -0 -0 -0 -0 -0 -0 -1 -5 -4 -4 -7 -10 -12 -11 -5 -0 -7 -2 -0 -19 -24 -14 -15 -27 -28 -11 -6 -6
-0 -0 -0 -0 -0 -0 -0 -0 -0 -0 -0 -0 -0 -0 -0 -0 -0 -0 -0 -2 -0 -0 -2 -1 -1 -1 -6 -7 -9 -10 -4 -4 -5 -8 -2 -18 -5 -8 -15 -7 -10 -19 -15
-0 -0 -0 -0 -0 -0 -0 -0 -0 -0 -0 -1 -0 -0 -0 -0 -0 -0 -0 -0 -0 -0 -0 -1 -3 -3 -9 -0 -0 -23 -5 -2 -13 -1 -3 -4 -7 -4 -2 -1 -9 -25 -6
-0 -0 -0 -0 -0 -0 -0 -0 -0 -0 -1 -1 -0 -1 -0 -0 -0 -0 -0 -0 -0 -0 -1 -2 -5 -11 -13 -15 -16 -11 -9 -15 -0 -2 -8 -4 -12 -11 -13 -23 -17 -25 -0
-0 -0 -0 -0 -0 -0 -0 -0 -0 -0 -0 -1 -1 -1 -0 -0 -0 -10 -0 -0 -0 -0 -5 -14 -11 -9 -6 -15 -12 -20 -34 -11 -4 -3 -2 -5 -17 -1 -0 -0 -0 -0 -0
-0 -0 -0 -0 -0 -0 -0 -0 -1 -1 -0 -2 -1 -1 -2 -0 -0 -0 -0 -0 -0 -0 -0 -15 -13 -7 -39 -19 -27 -0 -0 -0 -4 -5 -4 -9 -15 -11 -0 -0 -0 -0 -0
-0 -0 -0 -0 -0 -0 -0 -1 -0 -1 -1 -1 -1 -0 -1 -1 -0 -0 -0 -0 -0 -0 -43 -11 -9 -10 -17 -28 -0 -0 -0 -0 -6 -11 -11 -7 -4 -1 -0 -0 -0 -0 -3
-0 -0 -0 -0 -0 -0 -0 -0 -0 -3 -2 -1 -1 -1 -0 -1 -0 -0 -0 -0 -40 -30 -9 -15 -28 -0 -0 -0 -0 -0 -0 -0 -7 -10 -16 -12 -12 -7 -18 -0 -0 -7 -3
-0 -0 -0 -0 -0 -0 -0 -0 -6 -6 -4 -1 -1 -1 -1 -0 -5 -0 -0 -30 -16 -12 -10 -45 -11 -0 -0 -0 -0 -0 -0 -0 -9 -0 -5 -0 -0 -0 -0 -0 -0 -2 -3
-0 -0 -0 -0 -0 -0 -0 -3 -7 -11 -5 -0 -2 -0 -0 -4 -4 -6 -0 -0 -0 -6 -3 -0 -0 -0 -0 -0 -0 -0 -0 -0 -0 -0 -20 -20 -2 -8 -4 -1 -8 -1 -4
-0 -0 -0 -0 -0 -4 -7 -12 -13 -10 -2 -0 -0 -1 -3 -35 -0 -0 -0 -0 -0 -0 -0 -0 -0 -0 -0 -0 -0 -0 -0 -0 -0 -0 -19 -20 -3 -15 -8 -17 -8 -4 -3
-0 -0 -0 -0 -2 -2 -4 -6 -8 -4 -0 -0 -4 -22 -7 -42 -0 -0 -0 -0 -0 -0 -0 -0 -0 -0 -0 -0 -0 -0 -0 -0 -6 -6 -8 -9 -3 -7 -4 -9 -12 -10 -8
-0 -0 -0 -0 -2 -0 -0 -8 -3 -0 -0 -0 -6 -19 -46 -62 -6 -0 -0 -0 -0 -0 -0 -0 -0 -0 -0 -0 -0 -0 -0 -2 -0 -0 -0 -0 -5 -7 -12 -13 -14 -13 -13
-0 -0 -5 -5 -0 -8 -4 -4 -0 -0 -2 -9 -7 -16 -10 -26 -0 -0 -0 -0 -0 -0 -0 -0 -0 -0 -0 -0 -4 -5 -2 -3 -5 -5 -0 -0 -0 -5 -0 -4 -8 -12 -14
-2 -10 -0 -3 -0 -8 -3 -0 -5 -0 -17 -15 -41 -30 -8 -0 -0 -0 -0 -0 -0 -0 -0 -0 -4 -18 -7 -4 -33 -19 -10 -8 -0 -0 -0 -0 -11 -3 -0 -0 -10 -7 -7
-0 -0 -0 -0 -4 -0 -0 -0 -0 -0 -0 -0 -0 -0 -0 -0 -0 -0 -0 -0 -0 -0 -0 -0 -16 -10 -31 -0 -0 -19 -5 -2 -0 -0 -0 -3 -3 -0 -1 -0 -10 -6 -4
-0 -0 -0 -0 -1 -0 -0 -0 -0 -0 -0 -0 -0 -0 -0 -0 -0 -0 -0 -0 -0 -0 -0 -23 -2 -17 -18 -0 -0 -0 -0 -3 -16 -2 -6 -1 -3 -3 -1 -3 -5 -3 -0
-0 -0 -0 -0 -1 -0 -2 -0 -0 -0 -0 -0 -0 -0 -0 -0 -0 -0 -0 -0 -0 -12 -9 -14 -5 -7 -8 -9 -3 -1 -0 -1 -5 -4 -4 -2 -3 -4 -1 -3 -3 -3 -3
-45 -0 -0 -0 -0 -0 -5 -12 -0 -0 -0 -0 -0 -0 -0 -0 -0 -0 -0 -0 -0 -2 -0 -0 -0 -3 -3 -8 -2 -13 -12 -9 -4 -7 -8 -6 -6 -3 -1 -12 -3 -0 -3
-0 -0 -0 -0 -0 -1 -5 -11 -3 -25 -31 -13 -0 -0 -0 -0 -0 -0 -22 -11 -2 -1 -0 -0 -0 -2 -1 -1 -2 -3 -3 -6 -8 -5 -4 -1 -0 -0 -0 -1 -0 -1 -1
-0 -0 -0 -0 -0 -4 -8 -13 -5 -8 -7 -0 -0 -0 -0 -0 -0 -0 -0 -0 -0 -0 -0 -0 -0 -2 -2 -0 -0 -0 -3 -1 -5 -2 -0 -0 -0 -0 -0 -0 -0 -0 -0
-0 -0 -0 -1 -0 -3 -7 -7 -4 -11 -1 -3 -0 -0 -0 -0 -0 -0 -0 -0 -0 -0 -0 -0 -0 -0 -0 -0 -0 -0 -2 -0 -0 -0 -0 -0 -0 -0 -0 -0 -0 -0 -1
-0 -0 -0 -0 -2 -7 -9 -2 -1 -2 -1 -0 -0 -0 -0 -0 -0 -0 -0 -0 -0 -0 -0 -0 -0 -0 -0 -0 -1 -0 -0 -0 -0 -0 -0 -0 -0 -0 -0 -0 -0 -0 -0
-0 -0 -3 -1 -12 -13 -1 -0 -0 -0 -0 -0 -0 -0 -0 -0 -0 -0 -0 -0 -0 -0 -0 -0 -0 -0 -0 -2 -0 -0 -0 -0 -0 -0 -0 -0 -0 -0 -0 -0 -0 -0 -0
-0 -7 -15 -0 -1 -10 -0 -0 -0 -0 -0 -0 -0 -0 -0 -0 -0 -0 -0 -0 -0 -0 -0 -0 -0 -0 -1 -0 -0 -0 -0 -0 -0 -0 -0 -0 -0 -0 -0 -0 -0 -0 -0
-5 -0 -0 -0 -6 -10 -0 -0 -0 -0 -0 -0 -0 -0 -0 -0 -0 -0 -0 -0 -0 -0 -0 -0 -0 -0 -0 -0 -0 -0 -0 -0 -0 -0 -0 -0 -0 -0 -0 -0 -0 -0 -0
Wind_Speed
7 7 7 8 10 12 12 11 13 14 12 13 12 13 14 15 14 14 14 15 16 18 18 19 19 20 19 24 25 24 25 27 29 31 29 29 26 29 27 27 25 28 27
7 7 7 8 9 10 11 11 12 12 12 11 12 13 15 15 14 12 12 18 18 19 20 21 21 22 24 26 26 28 26 30 29 32 29 30 26 26 27 26 24 27 28
7 7 7 6 8 9 10 11 11 12 12 11 12 12 12 14 12 12 13 15 17 19 19 18 21 24 24 22 24 26 28 29 32 30 31 31 34 25 27 29 28 30 28
7 6 5 6 7 9 9 11 10 10 10 11 12 12 12 11 10 10 10 12 15 17 20 21 21 19 21 20 20 23 28 32 29 30 31 30 31 31 29 32 34 31 32
7 4 3 4 6 7 8 10 9 9 10 9 11 11 12 11 8 7 11 15 17 19 21 20 21 24 23 20 18 25 26 28 28 29 30 29 31 32 31 31 32 33 32
4 4 3 2 4 6 7 9 9 9 10 10 10 11 10 9 13 13 13 13 14 16 18 19 22 22 18 22 21 23 23 28 28 27 28 29 29 29 30 30 31 33 33
3 2 1 3 4 5 7 8 9 9 10 10 10 11 10 9 8 11 11 12 14 16 17 19 22 23 22 26 27 29 31 31 28 24 26 26 29 27 28 29 28 30 30
4 3 1 1 3 4 6 7 8 9 10 9 10 10 9 10 8 8 9 12 15 14 16 20 20 19 24 28 29 31 31 30 26 25 25 26 25 25 24 23 30 29 27
2 4 2 1 1 2 4 6 8 9 9 9 10 9 10 9 9 7 11 14 17 21 20 22 19 22 26 30 32 33 31 28 29 29 25 24 23 20 19 20 30 31 32
7 4 3 2 2 3 4 6 7 9 8 9 8 9 8 9 14 16 17 18 20 28 25 24 24 25 28 30 30 30 31 30 30 25 24 25 22 23 17 14 22 30 27
4 5 4 0 3 2 5 7 7 7 8 9 9 9 7 11 13 16 16 18 23 27 25 18 21 25 26 27 27 27 28 27 25 23 24 26 26 28 24 24 14 13 8
4 5 4 1 1 3 5 7 7 8 10 9 9 8 11 12 12 14 15 17 22 25 23 19 20 23 25 25 24 27 27 25 24 22 25 29 29 29 29 30 30 16 4
7 5 4 3 1 4 6 6 8 8 7 7 9 12 12 12 14 14 15 17 21 21 23 22 23 20 23 23 22 23 24 24 26 28 28 27 30 29 30 29 28 29 20
8 7 4 3 2 5 6 7 6 7 6 6 12 16 15 17 15 18 21 25 27 23 26 23 20 19 21 22 24 23 22 25 19 25 28 28 23 32 29 28 30 30 30
9 5 4 2 4 6 9 9 9 13 14 14 16 17 18 17 19 22 26 27 25 24 24 22 17 20 19 27 28 22 18 22 24 27 28 19 24 26 26 26 28 29 31
8 6 5 4 5 5 7 11 16 15 15 16 14 15 19 18 19 22 23 20 21 23 23 23 24 20 26 26 22 23 22 20 28 21 14 15 23 23 25 25 27 31 32
7 6 6 6 6 5 6 6 8 13 16 16 16 16 18 20 22 22 19 19 18 20 20 21 26 24 22 22 27 22 16 18 19 12 8 14 17 19 24 24 28 29 31
7 7 6 6 6 6 7 8 9 10 11 12 14 15 17 19 20 20 21 21 20 18 16 20 27 23 20 21 22 19 17 12 10 2 7 14 23 26 28 29 30 30 32
8 6 5 5 5 8 8 9 10 10 11 13 14 14 14 16 16 16 17 18 18 25 26 26 25 14 21 18 17 18 17 12 4 3 3 9 16 24 26 27 29 29 31
8 11 8 6 7 9 9 10 10 11 10 12 15 22 16 14 14 15 16 17 24 26 26 25 18 11 20 20 18 17 15 12 8 8 11 8 8 19 20 20 19 21 22
13 10 5 8 9 9 12 13 12 13 14 16 18 21 21 19 19 24 24 25 26 25 24 22 14 17 21 26 24 19 13 12 19 28 29 9 13 13 12 15 16 21 18
7 6 6 7 10 10 12 12 13 14 13 14 16 19 19 17 22 24 24 24 25 24 23 20 19 18 25 25 17 10 23 28 29 14 8 10 11 14 14 12 13 6 22
8 7 7 9 9 13 13 13 15 14 16 18 19 18 20 23 23 24 24 24 23 23 20 22 19 22 25 19 17 27 29 26 16 10 9 10 11 8 7 6 5 6 16
7 10 9 11 12 12 14 15 16 18 18 18 19 20 21 22 23 24 24 24 23 21 23 21 22 24 20 25 28 28 27 23 18 14 11 10 9 8 5 7 8 23 34
9 6 12 12 12 14 15 15 17 18 19 19 20 20 21 22 23 23 23 23 22 21 23 21 22 23 25 28 31 32 28 22 18 16 15 10 8 6 6 8 20 17 15
4 8 12 14 15 16 16 16 17 18 19 19 20 21 22 23 22 24 23 23 22 21 23 21 24 26 27 28 29 29 30 22 17 14 15 14 9 7 6 4 3 6 5
Wind_Direction
122 105 83 63 50 42 42 43 38 36 41 42 43 36 33 30 31 27 29 27 23 15 13 13 10 10 11 1 358 355 353 348 336 336 338 337 336 336 335 335 333 332 331
130 113 88 65 58 53 45 41 42 42 45 47 42 34 30 30 34 38 35 21 13 9 6 4 3 1 356 350 352 348 350 348 344 336 339 338 337 338 337 335 336 332 332
142 118 92 63 53 51 45 45 47 50 48 47 43 35 35 35 38 35 27 17 9 5 2 2 356 353 350 350 350 347 346 347 344 341 339 341 338 347 344 341 339 336 335
146 124 96 73 48 50 50 44 46 50 53 49 39 36 35 35 38 36 31 21 12 4 359 356 354 354 353 353 350 349 347 344 347 345 342 344 344 345 343 337 332 334 332
147 138 113 72 63 58 51 42 47 52 45 45 39 35 34 33 32 29 27 15 5 358 355 355 353 349 351 355 353 351 349 349 346 343 342 344 344 343 342 341 335 333 332
161 153 115 80 26 26 41 39 47 42 38 38 34 30 35 39 36 28 15 11 5 359 356 355 353 351 1 357 0 355 352 347 344 341 341 341 344 344 344 342 338 331 324
178 169 124 64 56 31 39 38 43 39 34 34 27 27 30 30 28 21 19 13 4 358 354 354 353 353 355 354 352 350 348 345 346 349 345 345 342 347 347 344 342 315 304
187 198 249 318 356 33 34 40 42 36 32 32 26 28 29 24 29 26 19 9 360 355 351 356 355 2 355 352 350 348 346 347 352 350 347 345 345 347 349 351 325 306 339
220 210 221 203 297 45 32 40 33 30 32 28 24 29 30 32 26 26 15 5 358 355 353 358 2 -0 357 353 350 347 348 349 347 345 345 347 347 353 358 357 298 313 314
257 231 251 294 147 109 47 39 33 29 32 26 32 35 38 36 24 15 8 4 2 356 3 4 4 359 356 355 354 353 351 350 349 352 352 347 350 347 2 9 348 310 339
235 240 262 174 137 75 42 36 33 30 27 29 23 30 39 31 24 13 12 10 2 358 356 8 8 4 2 2 2 2 1 1 1 360 354 345 338 336 350 333 3 8 13
241 230 223 269 103 38 43 38 38 33 25 28 39 37 27 31 25 23 16 11 6 4 6 8 6 3 3 4 5 2 360 1 3 4 353 325 320 338 337 304 292 270 8
254 234 206 178 108 68 44 36 34 28 46 47 25 27 34 30 23 25 18 9 3 1 359 358 357 2 2 4 3 4 6 8 1 355 318 304 317 345 302 296 296 297 298
235 216 210 211 74 72 50 38 54 55 63 39 23 17 28 24 32 21 11 2 358 358 357 358 5 12 8 7 8 7 8 4 20 355 304 298 5 334 303 299 305 303 303
209 187 176 178 101 64 18 26 29 21 26 34 25 27 28 24 17 10 2 1 5 8 7 9 13 12 13 7 6 15 22 17 9 353 317 10 292 295 291 292 297 300 311
188 163 165 137 107 68 44 30 20 30 27 24 33 32 26 27 16 7 7 14 16 15 14 13 11 15 7 11 22 17 15 18 0 14 37 270 284 282 287 286 293 310 306
196 182 148 134 125 107 87 50 34 30 26 31 37 34 28 21 17 17 21 19 16 16 17 13 11 14 18 22 14 21 27 21 21 37 260 269 274 275 286 283 293 296 302
183 169 153 130 117 112 97 82 65 55 41 43 37 34 32 29 28 29 26 21 20 18 17 15 13 21 29 24 24 30 30 41 37 9 270 275 287 290 292 294 298 296 301
193 178 157 116 104 125 115 85 69 70 64 49 38 36 34 29 27 24 22 21 20 16 17 16 18 38 28 29 34 32 33 34 15 359 291 274 282 290 291 290 293 290 296
192 142 127 108 109 119 91 91 68 63 69 56 36 21 27 22 21 22 24 28 20 17 18 19 32 42 30 30 31 30 32 30 31 31 28 13 296 285 280 278 276 278 299
140 136 119 115 101 108 91 93 76 79 60 43 32 26 26 31 27 18 21 21 19 19 21 25 43 35 28 17 17 23 27 28 23 3 359 293 286 284 284 278 275 277 297
141 138 116 97 107 79 72 68 61 54 52 46 41 36 39 38 24 22 24 24 22 23 26 33 35 35 21 20 28 28 19 6 2 8 315 297 290 285 282 279 275 292 -0
134 128 112 97 83 77 70 66 59 53 46 34 35 39 33 24 25 26 27 26 26 28 34 31 36 29 23 28 30 16 11 12 13 354 311 302 298 304 335 311 331 333 3
135 121 97 80 83 71 61 56 51 38 42 44 37 33 32 29 30 29 29 29 30 33 29 34 32 26 30 25 19 16 14 15 12 6 356 344 344 335 332 346 343 0 343
116 86 88 81 71 73 78 67 51 48 48 43 37 34 33 33 32 32 31 32 32 35 31 35 33 30 27 19 13 11 16 18 16 12 9 358 2 359 349 357 10 13 21
85 78 76 76 77 83 65 55 54 59 55 46 41 39 36 35 36 33 34 33 33 37 29 36 30 25 24 21 19 19 17 21 17 9 19 26 20 358 360 341 312 61 281